Change the Weather History Date:

Sunday, March 11, 2012

  Actual Average Record
Temperature  
Mean Temperature 46 °F 34 °F  
Max Temperature 54 °F 45 °F 69 °F (1990)
Min Temperature 37 °F 24 °F -19 °F (1948)
Degree Days  
Heating Degree Days 19 31  
Month to date heating degree days 274 362  
Since 1 July heating degree days 5054 5656  
Cooling Degree Days 0 0  
Month to date cooling degree days 0 0  
Year to date cooling degree days 0 0  
Moisture  
Dew Point 40 °F    
Average Humidity 76    
Maximum Humidity 96    
Minimum Humidity 38    
Precipitation  
Precipitation 0.22 in 0.06 in 1.45 in (1977)
Month to date precipitation 0.22 0.52  
Year to date precipitation 2.99 1.81  
Snow  
Snow 0.00 in 0.20 in 8.90 in (1962)
Month to date snowfall T 2.6  
Since 1 July snowfall 18.3 29.1  
Snow Depth 0.00 in    
Sea Level Pressure  
Sea Level Pressure 29.86 in    
Wind  
Wind Speed 11 mph (SSE)    
Max Wind Speed 22 mph    
Max Gust Speed 28 mph    
Visibility 8 miles    
Events Rain    
T = Trace of Precipitation, MM = Missing Value Source: NWS Daily Summary

Daily Weather History Graph

Daily Weather History Graph

Search for Another Location

Airport or City:

Trip Planner

Search our weather history database for the weather conditions in past years. The results will help you decide how hot, cold, wet, or windy it might be!

Date:

Astronomy

Mar. 11, 2012 Rise Set
Actual Time 7:43 AM CDT 7:27 PM CDT
Civil Twilight 7:15 AM CDT 7:55 PM CDT
Nautical Twilight 6:42 AM CDT 8:28 PM CDT
Astronomical Twilight 6:10 AM CDT 9:01 PM CDT
Moon No Moon Rise 9:13 AM CDT (3/11)
Length of Visible Light 12h 40m
Length of Day
11h 44m
Waning Gibbous, 85% of the Moon is Illuminated
Mar 11
Waning Gibbous
Mar 14
Last Quarter
Mar 22
New
Mar 30
First Quarter
Apr 6
Full

Hourly Weather History & Observations

Time (CDT) Temp. Windchill Dew Point Humidity Pressure Visibility Wind Dir Wind Speed Gust Speed Precip Events Conditions
12:52 AM 50.0 °F - 25.0 °F 38% 30.00 in 10.0 mi South 13.8 mph - N/A   Clear
1:52 AM 50.0 °F - 27.0 °F 41% 29.99 in 10.0 mi SSW 17.3 mph - N/A   Clear
3:52 AM 48.9 °F - 28.0 °F 44% 29.99 in 10.0 mi South 10.4 mph - N/A   Clear
4:52 AM 42.1 °F 37.1 °F 27.0 °F 55% 29.99 in 10.0 mi ESE 8.1 mph - N/A   Clear
5:52 AM 45.0 °F 39.3 °F 28.0 °F 52% 30.00 in 10.0 mi SE 11.5 mph - N/A   Clear
6:52 AM 44.6 °F 39.2 °F 28.4 °F 53% 29.99 in 10.0 mi SSE 10.4 mph - N/A   Clear
7:52 AM 37.9 °F 33.5 °F 27.0 °F 65% 30.00 in 10.0 mi ESE 5.8 mph - N/A   Clear
8:52 AM 43.0 °F 39.5 °F 30.0 °F 60% 29.99 in 10.0 mi East 5.8 mph - N/A   Clear
9:52 AM 48.0 °F - 30.9 °F 52% 29.99 in 10.0 mi SE 9.2 mph - N/A   Partly Cloudy
10:52 AM 50.0 °F - 35.1 °F 57% 29.99 in 10.0 mi South 11.5 mph - 0.00 in   Overcast
11:52 AM 48.9 °F - 41.0 °F 74% 29.99 in 10.0 mi South 11.5 mph - 0.00 in Rain Light Rain
12:52 PM 54.0 °F - 39.0 °F 57% 29.94 in 10.0 mi SSE 15.0 mph - 0.01 in   Overcast
1:52 PM 52.0 °F - 39.9 °F 63% 29.91 in 10.0 mi SSE 11.5 mph 21.9 mph N/A   Overcast
2:17 PM 51.8 °F - 41.0 °F 67% 29.90 in 10.0 mi South 16.1 mph - N/A   Overcast
2:52 PM 53.1 °F - 43.0 °F 69% 29.88 in 10.0 mi SSE 13.8 mph 19.6 mph N/A   Overcast
3:50 PM 51.8 °F - 44.6 °F 76% 29.83 in 10.0 mi SSE 16.1 mph 23.0 mph N/A   Overcast
3:52 PM 51.1 °F - 45.0 °F 80% 29.83 in 10.0 mi SSE 11.5 mph 23.0 mph N/A   Overcast
4:52 PM 51.1 °F - 45.0 °F 80% 29.81 in 10.0 mi SSE 17.3 mph - N/A   Overcast
5:52 PM 51.1 °F - 45.0 °F 80% 29.79 in 10.0 mi SE 13.8 mph 20.7 mph N/A   Overcast
6:50 PM 48.2 °F - 46.4 °F 93% 29.78 in 3.0 mi South 15.0 mph - N/A Rain Rain
6:52 PM 48.0 °F - 46.0 °F 93% 29.81 in 3.0 mi South 18.4 mph - 0.04 in Rain Rain
7:09 PM 48.2 °F - 44.6 °F 87% 29.79 in 5.0 mi South 13.8 mph - 0.03 in Rain Rain
7:17 PM 46.4 °F 40.4 °F 44.6 °F 93% 29.79 in 6.0 mi SSE 13.8 mph - 0.05 in Rain Light Rain
7:25 PM 46.4 °F 40.7 °F 44.6 °F 93% 29.78 in 7.0 mi SSE 12.7 mph - 0.06 in Rain Light Rain
7:34 PM 46.4 °F 40.1 °F 44.6 °F 93% 29.79 in 7.0 mi SSE 15.0 mph - 0.07 in Rain Light Rain
7:43 PM 46.4 °F 40.7 °F 44.6 °F 93% 29.78 in 5.0 mi SSE 12.7 mph - 0.08 in Rain Rain
7:52 PM 46.9 °F - 45.0 °F 93% 29.80 in 5.0 mi SSE 11.5 mph - 0.10 in Rain Light Rain
8:18 PM 46.4 °F 41.9 °F 44.6 °F 93% 29.77 in 6.0 mi SSE 9.2 mph - 0.05 in Rain Light Rain
8:52 PM 46.0 °F 41.4 °F 45.0 °F 96% 29.78 in 8.0 mi SSE 9.2 mph - 0.07 in   Overcast
9:52 PM 46.0 °F 42.5 °F 45.0 °F 96% 29.76 in 5.0 mi SSE 6.9 mph - 0.00 in Rain Light Rain
10:52 PM 46.0 °F 42.5 °F 45.0 °F 96% 29.74 in 6.0 mi SSE 6.9 mph - 0.00 in   Overcast
11:25 PM 46.4 °F 42.4 °F 44.6 °F 93% 29.72 in 6.0 mi SSE 8.1 mph - N/A   Overcast
11:52 PM 46.0 °F 42.5 °F 45.0 °F 96% 29.72 in 5.0 mi SE 6.9 mph - N/A   Overcast
12:12 AM 46.4 °F 42.9 °F 44.6 °F 93% 29.70 in 4.0 mi SSE 6.9 mph - N/A   Overcast
12:52 AM 46.0 °F 41.9 °F 45.0 °F 96% 29.70 in 4.0 mi SSE 8.1 mph - N/A   Overcast